Weather in Ogre

Latvia     56°49′08″N   24°36′34″E
temp.,
°C
wind,
m/s
gust,
m/s
humid.,
%
clouds,
%
prec.,
mm/h
press.,
hPa
HPBL,
m
26 october, tue
tue2600:00+5ssw41372100 0.0 1019454
03:00+4ssw41077100 0.0 1018325
06:00+3s3983100 0.0 1016231
09:00+3s3884100 0.0 1015223
12:00+7ssw3770100 0.0 1015358
15:00+9ssw386976 0.0 1014627
18:00+8ssw4978100 0.0 1013433
21:00+8ssw51281100 0.1 1011755
27 october, wed
wed2700:00+9sw41293100 2.6 1011694
03:00+9wsw4109363 2.7 1011613
06:00+8w51085100 0.0 1012777
09:00+8w4979100 0.0 1013917
12:00+9sw41087100 0.0 1013664
15:00+10sw41083100 0.1 1012954
18:00+9sw61593100 3.0 10101070
21:00+11wsw61693100 4.0 10081155
28 october, thu
thu2800:00+12wsw61491100 1.5 10081104
03:00+12w51393100 1.5 1009892
06:00+12wnw5119098 0.3 1012851
09:00+11wnw399347 0.6 1015545
12:00+12nw487693 0.1 1018712
15:00+12nw246869 0.1 1019618
18:00+10sse1185100 0.0 102110
21:00+10s2393100 0.0 102244
29 october, fri
fri2900:00+11s389598 0.0 1022264
03:00+10ssw389729 0.0 1022262
06:00+8ssw399585 0.0 1023221
09:00+8s3996100 0.0 1023212
12:00+12s4118429 0.0 1023425
15:00+14s4107713 0.0 1022590
18:00+12s413887 0.0 1021500
21:00+12s5158710 0.0 1020600
30 october, sat
sat3000:00+11s5159086 0.0 1020617
03:00+10s51491100 0.0 1019520
06:00+10s4139154 0.0 1018483
09:00+9s5148875 0.0 1017521
12:00+11s511775 0.0 1016570
15:00+13s5126799 0.0 1015917
18:00+11ssw41267100 0.0 1016560
21:00+10ssw41269100 0.0 1016427